[[{"header":{"parameterUnit":"m.s-1","parameterCategory":1,"la1":30.2991,"la2":30.254,"lo1":-89.0895,"lo2":-89.0444,"dy":0.0017,"dx":0.0017,"nx":28,"ny":28,"refTime":"2024-07-03T09:00:00:Z","depth":0,"parameterNumber":2,"parameterNumberName":"U-component_of_WINDS"},"data":[0,0,0,0,0,0,0,0,0,0,0,0,0,0,0,0,0,0,0,0,0,0,0,0,0,0,0,0,0,0,0,0,0,0,0,0,0,0,0,0,0,0,0,0,0,0,0,0,0,0,0,0,0,0,0,0,0,0,-0.206,-0.206,0,-0.2079,-0.2079,-0.208,-0.2103,-0.2103,-0.2104,-0.2104,-0.2123,-0.2123,-0.2123,0,0,0,0,0,0,0,0,0,0,0,0,0,-0.2044,-0.2044,-0.206,-0.206,-0.206,-0.2079,-0.2079,-0.208,-0.2103,-0.2103,-0.2104,-0.2104,-0.2123,-0.2123,-0.2123,0,0,0,0,0,0,0,0,0,0,0,0,0,-0.2056,-0.2044,-0.206,-0.2074,-0.2076,-0.2079,-0.2079,-0.208,-0.2103,-0.2103,-0.2104,-0.2104,-0.2123,-0.2123,-0.2123,-0.2114,0,0,-0.2124,-0.2124,0,0,0,0,0,0,0,0,-0.2055,-0.2056,-0.2072,-0.2073,-0.2075,-0.2089,-0.2081,-0.2091,-0.2102,-0.2092,-0.2104,-0.2104,-0.2111,-0.2112,-0.2115,-0.2115,-0.2116,-0.2124,-0.2124,-0.2124,-0.2124,0,0,0,0,0,0,0,-0.2054,-0.2055,-0.2068,-0.2072,-0.2074,-0.208,-0.2082,-0.2083,-0.2098,-0.2093,-0.2095,-0.2097,-0.2112,-0.2114,-0.2115,-0.2116,-0.2124,-0.2124,-0.2124,-0.2124,-0.2111,-0.2111,0,0,0,0,0,0,-0.2051,-0.2055,-0.2067,-0.2068,-0.2066,-0.208,-0.2082,-0.2084,-0.2098,-0.2101,-0.2097,-0.2098,-0.2114,-0.2115,-0.2116,-0.2108,-0.2124,-0.2124,-0.2125,-0.2112,-0.2111,-0.2111,0,0,0,0,0,0,-0.2051,-0.2052,-0.2066,-0.2062,-0.2064,-0.2079,-0.2081,-0.2084,-0.2087,-0.2101,-0.2104,-0.2096,-0.2114,-0.2116,-0.2115,-0.2109,-0.2124,-0.2125,-0.2112,-0.2112,-0.2111,-0.209,0,0,0,0,0,0,-0.205,-0.2052,-0.2048,-0.2062,-0.2064,-0.2064,-0.2081,-0.2084,-0.2087,-0.2089,-0.2101,-0.2104,-0.2115,-0.2114,-0.2115,-0.2109,-0.2125,-0.2113,-0.2112,-0.2111,-0.2091,-0.2089,-0.2086,0,0,0,0,0,-0.2049,-0.2041,-0.2048,-0.2049,-0.206,-0.2064,-0.2065,-0.2078,-0.2086,-0.2083,-0.2093,-0.2103,-0.2109,-0.2114,-0.2115,-0.2109,-0.2113,-0.2112,-0.2111,-0.2092,-0.2089,-0.2086,0,0,0,0,0,0,-0.2025,-0.2043,-0.2051,-0.2046,-0.2053,-0.2068,-0.2064,-0.2074,-0.2079,-0.2081,-0.2096,-0.2099,-0.2097,-0.2103,-0.2108,-0.2102,-0.2113,-0.2112,-0.2098,-0.2095,-0.2093,-0.2092,-0.2125,0,0,0,0,0,-0.202,-0.2021,-0.2036,-0.2031,-0.2034,-0.2049,-0.2051,-0.206,-0.2068,-0.2071,-0.2081,-0.2088,-0.2092,-0.2094,-0.2098,-0.2092,-0.2096,-0.2089,-0.2086,-0.2084,-0.2083,-0.2083,-0.208,-0.2107,-0.2107,-0.2107,0,0,-0.2007,-0.2017,-0.2017,-0.2026,-0.2033,-0.2035,-0.2051,-0.2052,-0.2053,-0.2071,-0.2072,-0.2079,-0.2088,-0.2085,-0.2084,-0.209,-0.2077,-0.2083,-0.2081,-0.2081,-0.2081,-0.2079,-0.2076,-0.2106,-0.2106,-0.2106,0,0,-0.1987,-0.1994,-0.1991,-0.1998,-0.2008,-0.2018,-0.2018,-0.2031,-0.2037,-0.2037,-0.2051,-0.2053,-0.2059,-0.2065,-0.2069,-0.2053,-0.2063,-0.2054,-0.2041,-0.204,-0.2038,-0.2036,-0.2032,-0.203,-0.2053,-0.2053,-0.2053,0,-0.1971,-0.1974,-0.1988,-0.1989,-0.1993,-0.201,-0.2008,-0.2014,-0.2025,-0.2027,-0.2034,-0.2042,-0.2049,-0.2049,-0.2046,-0.2048,-0.2048,-0.2053,-0.2037,-0.2035,-0.2034,-0.203,-0.2028,-0.2051,-0.2052,-0.2052,-0.2052,0,-0.1954,-0.1957,-0.1953,-0.1964,-0.1968,-0.1967,-0.1982,-0.1984,-0.1993,-0.2002,-0.2003,-0.2013,-0.202,-0.2021,-0.2029,-0.2022,-0.2026,-0.2034,-0.2046,-0.203,-0.2027,-0.2025,-0.205,-0.205,-0.2051,-0.2051,0,0,-0.1919,-0.1939,-0.1938,-0.1944,-0.1957,-0.1959,-0.196,-0.1967,-0.1969,-0.1976,-0.1978,-0.1983,-0.1991,-0.1996,-0.2006,-0.2005,-0.1993,-0.2014,-0.2014,-0.2011,-0.1987,-0.1981,-0.1979,-0.2,-0.1999,-0.1999,-0.1987,0,-0.1902,-0.1904,-0.1917,-0.1916,-0.1919,-0.1935,-0.1936,-0.1944,-0.1953,-0.1957,-0.1967,-0.1971,-0.1981,-0.1984,-0.1984,-0.1994,-0.1989,-0.1995,-0.2002,-0.2002,-0.2,-0.1977,-0.1971,-0.1959,-0.1985,-0.1985,-0.1985,0,-0.1882,-0.1889,-0.1888,-0.1903,-0.1905,-0.1905,-0.1914,-0.1917,-0.1928,-0.1934,-0.194,-0.1951,-0.1953,-0.1964,-0.1967,-0.1971,-0.1975,-0.198,-0.198,-0.1982,-0.1993,-0.198,-0.1955,-0.1954,-0.1983,-0.1983,-0.1983,0,-0.1858,-0.1867,-0.1868,-0.1873,-0.189,-0.189,-0.1897,-0.1908,-0.1912,-0.192,-0.1923,-0.193,-0.1934,-0.194,-0.1953,-0.1959,-0.1956,-0.1967,-0.1962,-0.1962,-0.1961,-0.1961,-0.1938,-0.1961,-0.1961,-0.1961,-0.1961,0,-0.1838,-0.1837,-0.1858,-0.1859,-0.1859,-0.1874,-0.1874,-0.1882,-0.1892,-0.1895,-0.1909,-0.1912,-0.1929,-0.1933,-0.1944,-0.1946,-0.1947,-0.1953,-0.1956,-0.1952,-0.1952,-0.1955,-0.1957,-0.1961,-0.1961,-0.1961,-0.1961,0,-0.1812,-0.1825,-0.1828,-0.1844,-0.1849,-0.1848,-0.1862,-0.1864,-0.1874,-0.1878,-0.1879,-0.1895,-0.1901,-0.1915,-0.1925,-0.1932,-0.1932,-0.1936,-0.1928,-0.193,-0.1925,-0.1926,-0.1905,-0.1903,-0.1926,-0.1926,-0.1926,0,-0.1799,-0.1798,-0.1815,-0.1819,-0.1826,-0.183,-0.1835,-0.1851,-0.1855,-0.1868,-0.1868,-0.1876,-0.1883,-0.1892,-0.1905,-0.1912,-0.1918,-0.191,-0.1919,-0.1916,-0.1919,-0.192,-0.192,-0.1908,-0.1908,-0.1907,-0.1907,0,-0.1774,-0.1782,-0.1788,-0.1797,-0.1803,-0.1811,-0.1819,-0.1821,-0.1839,-0.1843,-0.185,-0.1856,-0.1867,-0.1874,-0.1884,-0.1892,-0.1903,-0.1904,-0.1904,-0.19,-0.1896,-0.19,-0.1924,-0.1905,-0.1905,-0.1905,-0.1905,-0.1905,-0.1755,-0.1757,-0.1769,-0.1776,-0.1785,-0.1793,-0.1796,-0.1807,-0.1813,-0.1823,-0.1832,-0.1839,-0.185,-0.1865,-0.1872,-0.1877,-0.1882,-0.1881,-0.1881,-0.1881,-0.188,-0.1895,-0.1879,-0.1879,-0.1879,-0.1879,-0.1879,0,-0.1733,-0.1742,-0.1749,-0.1761,-0.1767,-0.1777,-0.1787,-0.1792,-0.1798,-0.1808,-0.1815,-0.1823,-0.1831,-0.1845,-0.1854,-0.1856,-0.1861,-0.1858,-0.1858,-0.186,-0.1874,-0.1874,-0.1853,-0.1853,-0.1853,-0.1853,-0.1853,-0.1853,-0.1722,-0.1726,-0.1735,-0.1743,-0.1752,-0.1759,-0.1764,-0.1772,-0.178,-0.179,-0.1797,-0.1806,-0.1817,-0.1828,-0.1835,-0.1839,-0.1842,-0.1838,-0.1843,-0.1856,-0.1859,-0.1861,-0.1861,-0.1838,-0.1838,-0.1828,-0.1828,-0.1828]},{"header":{"parameterUnit":"m.s-1","parameterCategory":1,"la1":30.2991,"la2":30.254,"lo1":-89.0895,"lo2":-89.0444,"dy":0.0017,"dx":0.0017,"nx":28,"ny":28,"refTime":"2024-07-03T09:00:00:Z","depth":0,"parameterNumber":3,"parameterNumberName":"V-component_of_WINDS"},"data":[0,0,0,0,0,0,0,0,0,0,0,0,0,0,0,0,0,0,0,0,0,0,0,0,0,0,0,0,0,0,0,0,0,0,0,0,0,0,0,0,0,0,0,0,0,0,0,0,0,0,0,0,0,0,0,0,0,0,1.5592,1.5593,0,1.5671,1.5672,1.5672,1.5647,1.5646,1.5644,1.5642,1.5722,1.5726,1.5729,0,0,0,0,0,0,0,0,0,0,0,0,0,1.5421,1.5424,1.5592,1.5593,1.5594,1.5671,1.5672,1.5673,1.5648,1.5646,1.5644,1.5642,1.5721,1.5725,1.573,0,0,0,0,0,0,0,0,0,0,0,0,0,1.5497,1.5425,1.5592,1.5591,1.5592,1.567,1.5672,1.5673,1.5648,1.5646,1.5643,1.5641,1.572,1.5725,1.573,1.5815,0,0,1.5747,1.575,0,0,0,0,0,0,0,0,1.5492,1.5503,1.559,1.5591,1.5592,1.5647,1.564,1.5721,1.5649,1.5627,1.5642,1.5639,1.5699,1.5706,1.5726,1.5819,1.5822,1.5748,1.5751,1.5754,1.5755,0,0,0,0,0,0,0,1.5487,1.55,1.5623,1.5591,1.5593,1.5586,1.5594,1.5655,1.5676,1.5628,1.5627,1.5636,1.5699,1.5721,1.5728,1.5823,1.5748,1.5753,1.5756,1.5758,1.5988,1.5991,0,0,0,0,0,0,1.5481,1.5495,1.5621,1.5626,1.5535,1.5592,1.5601,1.5632,1.5675,1.5679,1.5638,1.5635,1.5713,1.5722,1.5731,1.5832,1.5753,1.5759,1.5762,1.5986,1.5989,1.5992,0,0,0,0,0,0,1.5478,1.5493,1.5618,1.556,1.5576,1.5597,1.5632,1.5635,1.5656,1.5683,1.5686,1.5657,1.5711,1.5723,1.5794,1.5835,1.5761,1.5766,1.5982,1.5987,1.5991,1.6036,0,0,0,0,0,0,1.5473,1.5492,1.5524,1.5561,1.5579,1.568,1.5635,1.5638,1.5666,1.5662,1.5701,1.5705,1.571,1.5786,1.58,1.5841,1.577,1.5979,1.5984,1.5989,1.6031,1.6041,1.605,0,0,0,0,0,1.5467,1.5534,1.5526,1.5541,1.562,1.5682,1.5692,1.5697,1.5669,1.5702,1.5719,1.5704,1.5828,1.5793,1.5809,1.5852,1.5976,1.5983,1.5989,1.6027,1.6039,1.605,0,0,0,0,0,0,1.5501,1.5539,1.553,1.5611,1.5644,1.5678,1.5719,1.571,1.5751,1.5745,1.5749,1.5758,1.5831,1.5849,1.5809,1.5936,1.5898,1.5908,1.5922,1.5934,1.5943,1.5937,1.5775,0,0,0,0,0,1.5518,1.5566,1.5596,1.5664,1.5681,1.5698,1.5725,1.5725,1.5759,1.5773,1.5795,1.5829,1.5875,1.5905,1.595,1.6034,1.6042,1.6071,1.6081,1.6088,1.6096,1.6142,1.6155,1.6013,1.6013,1.6013,0,0,1.5553,1.558,1.561,1.5672,1.5697,1.5747,1.5709,1.5763,1.58,1.5781,1.585,1.5867,1.5905,1.5982,1.6018,1.6,1.6138,1.6096,1.6102,1.6106,1.615,1.6163,1.6175,1.6017,1.6016,1.6016,0,0,1.5643,1.5668,1.5727,1.5754,1.5792,1.5803,1.5817,1.5853,1.5864,1.5933,1.592,1.5964,1.6044,1.6071,1.6095,1.6195,1.6183,1.621,1.6259,1.6304,1.6315,1.6325,1.636,1.6373,1.6218,1.6218,1.6218,0,1.5682,1.5756,1.5759,1.5814,1.5842,1.5827,1.5888,1.5913,1.5964,1.5984,1.5962,1.6063,1.6087,1.6171,1.6195,1.6215,1.6232,1.6205,1.6313,1.6323,1.6332,1.6366,1.638,1.6221,1.622,1.622,1.622,0,1.5802,1.5853,1.5896,1.5946,1.5979,1.6036,1.6048,1.6081,1.6079,1.6091,1.6162,1.619,1.624,1.626,1.6258,1.6344,1.6331,1.6312,1.6273,1.6349,1.6381,1.6394,1.6225,1.6224,1.6223,1.6222,0,0,1.5914,1.5966,1.5982,1.6004,1.6046,1.6086,1.6142,1.6191,1.6219,1.6255,1.6302,1.6371,1.6353,1.638,1.6382,1.6421,1.6498,1.6396,1.6397,1.6414,1.6594,1.6608,1.6623,1.649,1.6492,1.6494,1.659,0,1.6007,1.6107,1.6112,1.6202,1.6249,1.6237,1.6286,1.6317,1.6331,1.6373,1.6388,1.6436,1.6409,1.6425,1.6463,1.648,1.6534,1.6473,1.6534,1.6536,1.6525,1.664,1.6655,1.6744,1.6603,1.6605,1.6606,0,1.6128,1.6168,1.6264,1.6299,1.6319,1.6363,1.6408,1.6449,1.6484,1.6491,1.6522,1.6517,1.6575,1.6536,1.6615,1.6574,1.6599,1.6612,1.6615,1.6621,1.6576,1.6648,1.6772,1.6786,1.6626,1.6625,1.6623,0,1.6201,1.6278,1.6345,1.6365,1.6408,1.6439,1.6458,1.6491,1.652,1.6559,1.6578,1.6624,1.6649,1.6684,1.6692,1.6663,1.6772,1.6733,1.6779,1.6779,1.6803,1.6801,1.6933,1.682,1.6819,1.6819,1.6819,0,1.6303,1.6362,1.6378,1.6419,1.6485,1.649,1.6554,1.6571,1.6601,1.6645,1.6637,1.6678,1.6687,1.673,1.6737,1.6802,1.6813,1.6821,1.6822,1.6821,1.682,1.6837,1.6831,1.6823,1.6822,1.6821,1.6821,0,1.6395,1.6408,1.648,1.6515,1.6525,1.6572,1.6601,1.6641,1.6653,1.6709,1.6723,1.6743,1.6793,1.6805,1.6866,1.687,1.6947,1.6942,1.6935,1.6935,1.698,1.6976,1.7127,1.7148,1.7022,1.7023,1.7024,0,1.6459,1.6504,1.6544,1.6573,1.6594,1.6641,1.667,1.6677,1.6708,1.6751,1.6786,1.6836,1.6876,1.6957,1.6977,1.7023,1.7019,1.7069,1.7026,1.7024,1.702,1.7017,1.7021,1.7077,1.7079,1.708,1.7081,0,1.6572,1.6577,1.662,1.6665,1.6701,1.6737,1.6771,1.6795,1.6807,1.6842,1.6894,1.6925,1.6987,1.7037,1.7083,1.7103,1.7094,1.7094,1.7107,1.7107,1.7101,1.7105,1.6957,1.7091,1.709,1.7089,1.7088,1.7088,1.6652,1.6691,1.6725,1.6774,1.68,1.6833,1.6871,1.6889,1.6932,1.6983,1.6984,1.7041,1.7075,1.7136,1.7159,1.7203,1.7188,1.7207,1.7212,1.7216,1.722,1.7095,1.7212,1.7211,1.7211,1.7211,1.7211,0,1.6764,1.6786,1.683,1.6878,1.6916,1.6905,1.6942,1.6975,1.7025,1.7057,1.7097,1.7156,1.7205,1.7228,1.7276,1.7307,1.7304,1.7319,1.7317,1.7321,1.7231,1.7215,1.7321,1.7321,1.7321,1.732,1.732,1.732,1.6827,1.6893,1.6901,1.698,1.7001,1.7056,1.7079,1.7109,1.7134,1.7201,1.7241,1.7257,1.7286,1.7335,1.7379,1.7385,1.7402,1.742,1.7423,1.7339,1.7328,1.7317,1.7302,1.7424,1.7424,1.751,1.751,1.7511]}]]